Location: Annatsberg
(48.5333°N, 14.0833°E)
Time: 02:37:53
(UTC+00:00)

Daily predictions for brighter satellites

Satellite Brightness Start Highest point End
(mag) Time Altitude Azimuth Time Altitude Azimuth Time Altitude Azimuth
ADEOS II 4.1 00:00:17 10° NE 00:03:54 19° E 00:07:32 10° SE
NOSS 2-2 (D) 4.4 00:01:59 10° NW 00:07:00 60° SW 00:11:38 21° SSE
Cosmos 1461 4.3 00:03:37 10° WNW 00:06:31 24° WSW 00:06:31 24° WSW
Cosmos 1674 Rocket 4.2 00:06:55 33° WSW 00:08:15 44° WNW 00:12:24 10° N
Cosmos 1867 4.0 00:05:01 24° WSW 00:08:17 59° NW 00:13:44 10° NNE
Cosmos 2298 Rocket 4.0 00:07:41 34° SSW 00:10:01 78° WNW 00:15:21 10° NNE
Cosmos 1674 4.3 00:10:51 21° W 00:11:48 23° WNW 00:14:52 10° NNW
Cosmos 1238 Rocket 4.2 00:10:26 10° NW 00:12:06 18° WNW 00:12:06 18° WNW
USA 306 2.9 00:11:52 47° SSW 00:12:48 61° SE 00:16:56 10° ENE
Thor Agena Rocket 3.7 00:07:45 10° NNE 00:13:03 69° ESE 00:15:34 31° S
Cosmos 2084 Rocket 4.3 00:12:47 27° SE 00:13:15 28° ESE 00:16:32 10° ENE
Cosmos 2369 Rocket 4.3 00:09:54 10° N 00:14:31 25° NE 00:19:07 10° E
ATLAS CENTAUR R/B 3.9 00:12:52 10° W 00:13:59 12° W 00:13:59 12° W
USA 307 2.9 00:15:20 45° SSW 00:16:16 57° SE 00:20:22 10° ENE
SL-16 R/B 3.4 00:16:08 20° SSE 00:19:07 32° ESE 00:24:05 10° NE
ERBS 2.3 00:22:52 51° SE 00:22:52 51° SE 00:25:45 10° ENE
ATLAS 5 CENTAUR R/B 3.2 00:13:02 10° NW 00:23:11 38° WSW 00:24:39 31° SSW
Cosmos 1980 3.7 00:20:38 31° SSW 00:23:27 85° WNW 00:29:09 10° NNE
Cosmos 1455 Rocket 3.1 00:19:29 10° N 00:23:59 81° E 00:26:09 30° SSE
CZ-4C R/B 3.6 00:17:27 10° NW 00:24:08 37° WSW 00:27:53 25° SSW
Cosmos 2333 Rocket 3.9 00:20:03 10° W 00:24:42 26° NW 00:29:25 10° NNE
USA 215 4.1 00:18:47 10° ENE 00:25:03 50° NNW 00:31:19 10° W
Cosmos 332 Rocket 3.7 00:28:23 34° SSW 00:30:28 82° ESE 00:35:18 10° NNE
NOSS 0 Rocket 4.2 00:29:22 24° SW 00:33:11 64° WNW 00:39:25 10° NNE
USA 32 4.3 00:35:15 29° SW 00:37:44 55° W 00:42:55 10° N
Meteor 1-24 Rocket 3.9 00:34:53 23° S 00:38:20 63° E 00:43:44 10° NNE
Meteor 2-10 Rocket 3.8 00:32:47 10° NNW 00:38:24 60° W 00:41:17 27° SSW
Cosmos 1975 Rocket 3.0 00:39:39 33° SSW 00:41:37 81° W 00:46:07 10° N
UNK 4.1 00:40:51 14° SSE 00:44:41 63° ENE 00:49:16 10° N
USA 308 2.8 00:44:46 29° WSW 00:46:50 86° SE 00:51:02 10° ENE
MOS 1 Rocket 3.6 00:44:05 13° SSE 00:47:46 56° ENE 00:52:00 10° N
Cosmos 2219 Rocket 4.0 00:43:43 10° W 00:48:03 23° NW 00:52:26 10° N
Cosmos 1025 Rocket 2.9 00:47:03 31° SSW 00:49:05 84° W 00:53:25 10° N
YAOGAN 11 4.5 00:46:10 14° SSE 00:49:55 65° ENE 00:54:25 10° N
Cosmos 1455 2.6 00:46:26 10° N 00:50:07 57° ENE 00:52:37 19° SSE
Cosmos 1269 Rocket 4.0 00:45:47 10° NNW 00:51:04 73° WSW 00:55:07 17° SSE
Cosmos 1271 Rocket 4.1 00:49:58 10° N 00:53:30 36° ENE 00:57:04 10° SE
GP-B 3.9 00:52:07 10° NNW 00:56:13 37° W 00:58:07 25° SW
CZ-2D R/B 2.1 00:53:35 10° NNE 00:59:00 88° ESE 01:02:28 23° SSW
Meteor 2-5 Rocket 3.7 00:55:38 24° SSW 00:59:16 79° WNW 01:04:58 10° N
Cosmos 1300 4.2 00:57:49 10° NW 01:00:43 21° W 01:01:27 20° WSW
Lacrosse 5 2.1 00:58:31 26° SSW 01:01:15 55° SE 01:06:14 10° ENE
Cosmos 2154 Rocket 4.3 00:57:51 10° N 01:04:13 71° E 01:10:31 10° SSE
Cosmos 1544 Rocket 3.6 01:05:55 10° NNW 01:10:20 65° W 01:13:10 21° S
USA 305 3.1 01:07:09 16° WSW 01:10:21 65° NNW 01:14:31 10° ENE
BREEZE-M DEB (TANK) 4.1 01:00:00 10° WSW 01:13:35 89° N 01:17:23 10° ENE
Cosmos 2237 Rocket 3.1 01:11:28 16° WSW 01:15:38 41° NW 01:21:02 10° NNE
AQUA 3.8 01:13:34 10° NNE 01:18:22 88° ESE 01:21:49 19° SSW
SL-16 R/B 2.6 01:14:42 14° S 01:20:03 60° WSW 01:26:15 10° NNW
Helios 1A 3.0 01:16:54 10° SSE 01:21:06 84° ENE 01:25:21 10° NNW
SAR-Lupe-2 3.5 01:18:22 10° NNE 01:21:59 84° WNW 01:24:09 23° SSW
Lacrosse 5 rocket 1.6 01:21:54 23° SSW 01:24:01 50° SE 01:27:59 10° ENE
SME Rocket 4.4 01:24:35 19° WSW 01:26:11 24° W 01:30:07 10° NW
Resurs 1-4 Rocket 2.5 01:22:59 10° N 01:28:07 53° WNW 01:31:56 18° SW
Cosmos 2074 Rocket 4.2 01:22:19 10° NNW 01:28:29 58° W 01:33:59 13° SSW
Cosmos 1943 Rocket 2.5 01:28:18 10° NW 01:33:41 45° WSW 01:39:02 10° S
Cosmos 2297 3.8 01:28:06 10° NW 01:33:43 57° WSW 01:39:19 10° S
Cosmos 1703 3.4 01:35:52 14° S 01:39:14 75° E 01:43:10 10° NNE
Cosmos 2184 Rocket 4.4 01:37:21 10° NNW 01:43:18 47° W 01:48:45 12° SSW
Cosmos 2278 Rocket 4.1 01:42:41 10° W 01:43:55 11° W 01:45:09 10° WSW
ADEOS II 2.2 01:38:52 10° N 01:44:07 70° WNW 01:48:40 14° SSW
IDEFIX/ARIANE 42P 2.6 01:39:45 10° NNE 01:45:03 81° WNW 01:49:52 12° SSW
MOS 1-B Rocket 4.4 01:43:01 10° SSE 01:48:31 61° ENE 01:54:15 10° N
Cosmos 292 Rocket 3.8 01:48:10 14° SSW 01:52:19 85° WNW 01:57:09 10° NNE
USA 306 3.8 01:48:28 10° W 01:52:31 47° NNW 01:56:34 10° ENE
Cosmos 2084 Rocket 4.2 01:49:15 12° WSW 01:52:32 38° NW 01:56:08 10° NNE
USA 307 3.7 01:51:54 10° W 01:55:58 48° NNW 02:00:03 10° ENE
NPP 4.4 01:51:02 10° N 01:56:01 40° WNW 02:00:35 12° SW
Meteor 1-21 Rocket 4.3 01:52:11 10° S 01:57:49 78° E 02:03:24 10° NNE
ERBS 3.8 01:55:32 10° W 01:58:14 28° NNW 02:00:57 10° NE
Cosmos 2369 Rocket 2.1 01:53:30 10° NNW 01:59:05 70° WSW 02:04:38 10° SSE
Gblst 52 Del rocket 4.4 01:54:45 10° WNW 02:00:31 76° NNE 02:06:01 10° ESE
IRS-1D 3.7 01:56:40 10° NNE 02:02:03 88° ESE 02:07:20 10° SSW
Cosmos 962 Rocket 4.4 01:56:02 10° N 02:02:12 80° W 02:08:18 10° S
Cosmos 2228 3.2 01:57:59 10° NNW 02:02:18 57° W 02:06:32 10° S
EO 1 Del DPAF 3.6 01:58:58 10° N 02:02:20 44° WNW 02:05:16 13° SW
Cosmos 614 Rocket 4.5 01:57:37 10° NW 02:02:27 40° WSW 02:07:18 10° S
SL-16 R/B 2.8 01:58:00 12° SW 02:03:02 48° NW 02:08:34 10° NNE
Cosmos 2251 Rocket 3.6 01:59:22 10° NNW 02:04:35 62° WSW 02:09:47 10° S
Meteor 1-28 Rocket 4.3 02:03:36 12° SSW 02:06:25 27° W 02:09:38 10° NW
Cosmos 2181 Rocket 4.5 02:00:38 10° S 02:06:45 62° E 02:12:49 10° NNE
USA 215 4.5 02:01:18 10° ENE 02:07:23 43° N 02:13:29 10° WNW
Cosmos 1656 Rocket 3.6 02:03:04 10° NNW 02:08:29 73° WSW 02:13:52 10° SSE
Cosmos 2058 Rocket 3.9 02:05:51 10° N 02:10:10 53° ENE 02:14:26 10° SSE
COSMOS 2455 2.9 02:04:48 11° SW 02:10:35 77° NW 02:16:39 10° NNE
Cosmos 1536 Rocket 4.5 02:08:03 11° SW 02:11:48 34° WNW 02:15:50 10° N
COSMOS 2441 4.5 02:12:31 10° N 02:17:22 66° WNW 02:22:09 10° SSW
Cosmos 1408 3.8 02:17:17 10° SSE 02:20:44 42° E 02:24:10 10° NNE
MSX 4.1 02:16:23 10° N 02:22:01 57° WNW 02:27:38 10° SW
Cosmos 1455 4.3 02:23:43 10° WNW 02:25:05 12° W 02:26:27 10° WSW
Cosmos 1603 3.9 02:20:48 10° SSW 02:26:24 74° ESE 02:32:05 10° NNE
USA 308 4.0 02:22:46 10° W 02:26:46 41° N 02:30:45 10° ENE
Cosmos 1271 Rocket 4.3 02:26:24 10° NW 02:29:11 19° W 02:31:58 10° SW
Cosmos 1606 Rocket 4.1 02:29:15 10° NNW 02:33:25 41° W 02:37:31 10° SSW
ALOS 2.7 02:31:51 10° NNE 02:36:30 65° E 02:41:08 10° S
